Regional Weather Roundup
Issued by NWS State College, PA

Home | Current Version | Previous Version | Graphics & Text | Print | Product List | Glossary On
Versions: 1 2 3 4 5 6 7 8 9 10 11 12 13 14 15 16 17 18 19 20 21 22 23 24 25 26 27 28 29 30 31 32 33 34 35 36 37 38 39 40 41 42 43 44 45 46 47 48 49 50
000
ASUS41 KCTP 300603
RWRCTP

REGIONAL WEATHER ROUNDUP
NATIONAL WEATHER SERVICE STATE COLLEGE PA
200 AM EDT SAT APR 30 2016

Note: "fair" indicates few or no clouds below 12,000 feet with no
significant weather and/or obstructions to visibility.

* = STATION THAT DOES NOT REPORT PRECIPITATION /E.G. RAIN...SNOW...ETC/
    THUNDER OR FOG.

PAZ002>004-007>009-013>016-020>023-029>032-300700-
WESTERN PENNSYLVANIA

CITY           SKY/WX    TMP DP  RH WIND       PRES   REMARKS
ERIE           CLEAR     37  34  89 SW3       30.15R
MEADVILLE      PTCLDY    34  34 100 NW3       30.13S
FRANKLIN*      CLOUDY    41  37  87 N3        30.14S
NEW CASTLE     CLOUDY    42  40  92 N8        30.14S
BEAVER COUNTY  NOT AVBL
BUTLER*        CLOUDY    45  39  81 CALM      30.14S
PITTSBURGH INT CLOUDY    46  40  79 NW8       30.12R
PITTSBURGH     CLOUDY    47  43  86 NW5       30.11R
INDIANA*       CLOUDY    48  46  93 CALM      30.13S
LATROBE        CLOUDY    50  50 100 CALM      30.11S FOG
WASHINGTON CO* CLOUDY    48  43  81 NW3       30.13R
$$

PAZ004>006-010>012-017>019-024>028-033>037-041-042-045-046-049>053-300700-
CENTRAL PENNSYLVANIA

CITY           SKY/WX    TMP DP  RH WIND       PRES   REMARKS
BRADFORD       CLOUDY    43  41  93 NE5       30.10F
DUBOIS         CLOUDY    45  43  93 NW3       30.09F FOG
CLEARFIELD     CLOUDY    45  43  93 E3        30.11S
JOHNSTOWN      CLOUDY    46  40  79 NE3       30.08F
ALTOONA        FOG       46  45  96 NE6       30.10S VSB 1/2
STATE COLLEGE  CLOUDY    44  43  99 CALM      30.12S FOG
WILLIAMSPORT   CLOUDY    46  43  89 E7        30.13F
SELINSGROVE    CLOUDY    46  44  93 NE5       30.15S
FT INDIANTOWN  CLOUDY    44  44 100 NE2       30.14F FOG
CAPITAL CITY   CLOUDY    47  45  93 E8        30.14S FOG
HARRISBURG     CLOUDY    47  44  90 E6        30.14S FOG
YORK           CLOUDY    48  46  93 E5        30.12S FOG
$$

PAZ038>040-043-044-047-048-054-055-060>062-067>071-300700-
EASTERN PENNSYLVANIA

CITY           SKY/WX    TMP DP  RH WIND       PRES   REMARKS
SCRANTON       CLOUDY    43  37  79 E3        30.14F
MOUNT POCONO   CLOUDY    37  33  85 N5        30.12S
ALLENTOWN      CLOUDY    45  38  76 CALM      30.15F
QUAKERTOWN*    CLOUDY    45  37  76 CALM      30.15F
READING        CLOUDY    45  40  82 NE3       30.14F
LANCASTER      CLOUDY    45  44  97 E8        30.14F FOG
COATESVILLE    CLOUDY    45  45 100 CALM      30.15F
POTTSTOWN      CLOUDY    44  37  76 E5        30.16F
BLUE BELL      CLOUDY    43  37  81 CALM      30.14F
DOYLESTOWN     CLOUDY    43  38  82 CALM      30.14F
WILLOW GROVE   NOT AVBL
NORTH PHILA    CLOUDY    46  42  86 NE5       30.17F
PHILADELPHIA   CLOUDY    47  41  80 NE9       30.16F
$$




USA.gov is the U.S. government's official web portal to all federal, state and local government web resources and services.